Vertical_Velocity
-3 -1 1 1 -1 -0 1 2 1 -3 0 6 3 6 3 -1 -2 -2 -2 2 3 2 -0 0 3 8 3 1 4 -0 -2 -3 0 2 0 1 1 -0 -0 0 -0 1 2 -1 -2 -2 -1 -1 1
-1 -2 1 1 -1 -1 3 -1 -1 4 -3 -4 4 2 2 2 3 2 3 1 5 7 6 2 3 1 3 6 3 4 2 -1 -3 -1 1 -1 -1 0 -2 1 1 2 2 4 1 -2 -1 -1 -4
1 -1 0 2 1 2 -1 -3 -1 -1 6 5 -2 2 -1 0 3 -1 2 3 4 2 1 6 5 3 1 1 2 2 3 4 -1 -5 -4 0 -2 1 0 -0 2 2 3 2 4 3 -1 -1 -1
1 -1 1 0 1 1 -2 -3 -2 7 -1 -0 0 2 1 -2 -1 -1 2 2 8 4 3 1 -2 -2 1 2 6 7 7 6 7 1 -2 -4 -3 -3 -1 2 2 1 2 0 -0 3 3 2 -0
-2 0 0 3 1 -1 -1 -1 0 2 -1 0 1 -1 -3 1 -2 -0 2 3 4 -2 0 5 6 7 8 2 -1 3 5 5 8 4 2 -1 -1 -4 -2 -3 -1 0 1 2 -2 0 1 1 -1
-2 -2 1 2 2 -3 -3 1 -1 -2 -0 -0 3 -1 4 -0 -1 1 -3 4 1 2 2 1 3 5 4 2 3 -0 5 5 2 5 5 3 1 -2 -2 -1 1 -0 1 1 1 0 1 2 0
-3 -2 0 3 1 -1 -1 -1 -1 0 -5 -2 -0 1 -1 0 0 -2 3 3 -5 -7 -6 -6 -3 2 1 -1 2 1 1 2 4 7 4 4 7 5 2 2 1 1 1 0 0 1 0 1 2
-1 0 -1 -0 1 4 3 1 -2 1 -1 1 -2 1 -1 2 0 6 1 -7 -1 2 -2 -2 -2 -2 -2 0 -3 1 7 -0 1 1 2 4 2 2 3 1 0 1 3 2 0 -2 -1 -1 -1
-2 2 -0 4 5 3 0 -3 -2 -3 1 -5 -1 -6 -5 0 5 3 -7 1 -5 -0 1 -0 -2 -3 2 5 4 1 1 -1 5 6 5 2 1 2 3 2 0 0 -1 1 0 2 0 -2 -4
-1 0 2 3 4 0 2 2 -2 -3 -2 7 2 1 1 5 -9 -5 -2 0 2 -2 -6 0 -7 -1 -3 0 0 6 2 1 7 5 6 3 3 4 1 4 3 3 2 3 -3 -4 -3 1 -3
-1 -2 2 3 1 1 -0 -1 -4 0 7 -3 -1 6 8 -3 1 1 -1 -1 1 3 1 -4 -2 -7 -3 -0 0 -3 3 6 3 9 5 4 6 3 3 1 -1 -1 2 5 5 0 -2 1 1
-3 -0 -2 2 -1 4 2 -3 -1 4 -2 3 12 -6 1 -5 0 0 3 1 0 -0 0 1 -0 4 -1 -1 3 3 1 -0 3 -2 9 7 7 6 1 -2 1 3 4 4 4 4 2 1 1
-2 -0 2 -0 1 -2 -9 -0 2 -3 5 16 2 1 -0 8 3 -1 1 -0 -0 -1 -1 -2 -3 -0 -1 -3 3 1 2 2 0 2 6 15 4 7 5 -1 -2 -2 -0 2 1 4 4 1 2
-1 -2 -2 2 1 -4 -9 -3 -3 5 -2 -7 -1 2 2 1 3 4 4 4 1 -2 -2 -4 -0 0 -2 -2 -3 1 -1 -0 1 1 -1 -2 19 12 -0 5 5 -3 -3 -1 0 -1 4 2 4
-1 -3 4 2 1 4 0 -0 -2 -3 -3 -2 2 2 1 3 0 0 3 4 3 4 1 2 -3 -6 -7 -0 -0 -3 -1 -0 -2 -1 -0 0 1 -5 10 21 -4 11 12 5 -6 -0 3 -2 -2
0 -6 -3 -1 -1 -0 -3 1 -1 -0 2 2 -0 1 3 1 1 1 1 -1 -1 1 1 1 1 1 1 -2 -7 -5 1 -3 -1 -1 -2 -2 0 -0 -0 -3 -19 35 -1 32 31 3 -3 -3 -0
-1 -0 -1 -1 -2 -2 -3 -1 0 1 0 -0 -0 1 -1 -3 -2 -2 -1 -0 1 2 2 2 1 1 1 2 1 -2 -4 -3 -4 -3 0 -2 -3 -3 -4 -4 -0 -25 -6 3 141 31 1 -13 3
1 -0 2 -3 2 6 -2 -3 -4 -5 -2 -2 -1 -1 0 1 -0 -2 -1 -1 0 0 1 1 0 -1 1 2 7 3 0 4 -3 -1 -6 0 0 -1 -3 -2 -7 -10 -21 19 23 0 24 -17 -8
-1 1 1 -1 -1 -2 -3 1 1 1 -3 -5 -3 -2 -1 -2 -1 1 2 2 1 -1 -2 -1 1 0 -3 -2 -0 10 5 3 -3 3 1 -1 2 4 -0 -4 2 -2 -4 -4 -14 -25 -6 -19 -11
2 2 -4 -1 1 -1 -4 -1 -0 -1 -3 -2 -4 -3 -1 2 3 3 1 -2 -3 -2 0 -1 -4 -3 -4 -3 -3 -12 -5 13 3 -2 -2 -1 -1 -2 2 -1 -8 -2 -6 -12 -8 5 5 -24 -3
3 -2 -2 3 -5 -1 1 -6 -6 -1 1 -1 -2 -2 -0 2 1 -0 0 -0 1 0 1 1 -1 -4 -5 -7 -7 -5 -7 -12 -5 -2 -2 -2 1 2 -3 1 -1 -6 -6 0 -9 -4 -7 -10 1
-0 6 3 -2 2 -1 -2 -12 -9 -6 -1 -4 -3 1 -0 0 -2 -3 -1 -1 -1 -1 -1 -2 -3 -3 1 0 -2 -6 -3 -6 -4 -6 -4 4 1 -0 -2 -2 1 -4 -7 -6 -0 -0 -1 -3 -4
-0 -0 2 2 3 5 1 -0 -2 -3 -7 -1 -1 -2 -1 -3 -3 0 2 0 -1 -3 -4 -2 0 -3 -1 -1 -2 -1 1 -4 -4 -1 -1 -3 1 0 -5 -3 3 -2 -6 -7 -1 -0 -2 -1 -13
2 0 -2 -2 1 4 -5 3 -4 -3 -4 -4 -3 -5 -2 -2 -1 -4 -6 -2 -3 -5 -5 -5 -4 -8 -8 -6 -5 -5 -4 -2 -3 0 -1 -1 -3 -2 -4 -5 2 3 -3 -3 -5 -3 -6 -7 -1
1 4 -3 -2 0 -6 -0 4 -28 -3 1 -1 -4 -1 -2 -0 -4 0 -3 -5 -4 -4 -6 -5 -5 -4 -3 -3 -3 -2 -4 -5 -6 -4 -3 -2 1 -1 -2 -7 -1 5 -3 -2 0 2 0 -1 -1
2 0 -7 -3 -2 -5 3 -5 -17 1 -0 -0 1 -0 -3 -1 -1 -2 -4 -4 -5 -5 -6 -4 -3 1 -1 -1 -2 -2 -2 -2 -1 -3 -4 -1 -2 -1 -0 -2 -1 -0 1 -5 -1 2 -1 3 2
0 -0 3 3 2 2 -1 -6 -2 -1 1 -1 -0 -0 -2 0 -1 -0 -2 -5 -4 -2 -3 -2 1 -2 -2 -2 -1 -1 -1 -1 -1 -2 -2 0 -1 -1 -3 -2 2 1 3 -1 1 -1 4 -2 6
3 0 -2 -0 -2 -1 -7 -8 -17 -9 -5 -4 -6 -0 -4 -5 -3 -4 -3 -2 -3 -2 -1 -3 -1 -2 -2 -2 -4 -2 -1 -1 -3 -2 -1 1 1 -0 -0 -1 1 1 4 5 -1 -2 7 5 6
2 -1 0 3 1 -2 -2 -23 -3 1 -0 -1 -1 -0 -4 -3 0 -0 -2 -5 -2 -1 -2 -2 1 -1 1 -2 1 1 -1 -1 3 3 5 3 3 2 2 3 1 2 0 1 -2 -2 4 4 9
-5 0 2 4 -8 -0 4 -54 -11 3 2 5 1 1 -0 1 -1 -3 -2 -1 -2 -2 -1 0 -3 -3 -5 -0 -3 -1 2 1 7 2 6 0 1 2 3 3 2 1 1 1 3 -2 3 1 2
Height
3145 3144 3144 3145 3150 3146 3146 3148 3148 3148 3149 3150 3150 3152 3154 3155 3156 3160 3157 3158 3158 3158 3158 3159 3159 3160 3160 3160 3160 3160 3160 3160 3160 3160 3160 3159 3158 3156 3155 3154 3154 3152 3152 3153 3153 3154 3154 3155 3155
3144 3144 3144 3143 3146 3146 3147 3147 3147 3147 3147 3149 3150 3151 3153 3154 3155 3156 3157 3157 3158 3158 3158 3158 3158 3159 3159 3159 3159 3160 3160 3159 3159 3159 3159 3159 3158 3157 3156 3155 3154 3153 3152 3152 3153 3154 3155 3155 3155
3142 3142 3143 3143 3143 3145 3148 3148 3146 3147 3147 3148 3149 3151 3153 3155 3155 3155 3156 3157 3157 3156 3156 3157 3157 3157 3157 3157 3157 3157 3158 3158 3158 3159 3159 3158 3158 3157 3156 3155 3154 3153 3153 3153 3153 3153 3154 3155 3155
3140 3142 3143 3142 3143 3145 3145 3147 3146 3146 3146 3147 3149 3151 3152 3153 3154 3154 3154 3154 3154 3155 3155 3155 3154 3154 3154 3154 3154 3154 3155 3155 3156 3157 3157 3157 3157 3156 3156 3155 3154 3153 3152 3152 3152 3153 3154 3155 3155
3139 3140 3139 3140 3142 3144 3145 3145 3145 3145 3145 3146 3147 3149 3150 3151 3152 3153 3153 3152 3152 3153 3153 3153 3153 3152 3152 3151 3150 3150 3151 3152 3154 3154 3155 3155 3155 3155 3155 3154 3153 3153 3152 3151 3151 3152 3154 3155 3156
3137 3139 3138 3139 3141 3142 3144 3144 3145 3144 3145 3146 3147 3147 3148 3148 3150 3151 3150 3149 3149 3150 3151 3151 3150 3150 3149 3149 3148 3147 3148 3149 3151 3151 3152 3152 3153 3153 3153 3153 3152 3151 3151 3150 3150 3151 3152 3153 3155
3135 3136 3136 3137 3141 3141 3143 3144 3144 3143 3144 3145 3144 3144 3146 3146 3146 3147 3147 3145 3146 3147 3148 3148 3147 3146 3146 3145 3145 3145 3144 3145 3147 3148 3149 3149 3150 3150 3151 3151 3150 3150 3150 3149 3149 3150 3151 3152 3153
3133 3134 3134 3136 3138 3141 3141 3141 3142 3142 3142 3143 3143 3143 3144 3145 3144 3144 3141 3143 3143 3144 3144 3144 3144 3143 3142 3141 3141 3140 3141 3142 3142 3142 3144 3145 3145 3146 3146 3147 3147 3148 3148 3147 3147 3148 3149 3150 3151
3131 3133 3133 3135 3136 3138 3139 3139 3140 3141 3141 3141 3141 3142 3143 3142 3142 3140 3139 3139 3139 3140 3140 3140 3140 3140 3138 3137 3137 3138 3137 3136 3137 3138 3139 3140 3141 3141 3142 3143 3144 3144 3144 3145 3145 3146 3147 3148 3149
3129 3130 3132 3134 3134 3135 3136 3137 3138 3139 3140 3140 3139 3138 3137 3137 3135 3135 3136 3136 3135 3135 3135 3134 3134 3133 3132 3131 3131 3132 3132 3133 3132 3133 3134 3135 3136 3137 3137 3138 3139 3140 3141 3140 3140 3141 3143 3144 3146
3127 3128 3130 3131 3131 3131 3132 3134 3135 3135 3136 3137 3136 3133 3129 3128 3128 3129 3129 3129 3130 3130 3129 3129 3127 3128 3127 3126 3125 3125 3126 3127 3128 3128 3128 3128 3130 3132 3133 3134 3135 3137 3137 3137 3136 3136 3138 3141 3143
3127 3127 3128 3130 3131 3131 3130 3130 3130 3129 3132 3132 3131 3126 3124 3123 3122 3122 3122 3122 3123 3123 3123 3124 3123 3121 3121 3121 3121 3121 3121 3121 3122 3123 3122 3121 3122 3124 3127 3129 3130 3130 3132 3132 3132 3131 3132 3134 3137
3123 3125 3126 3127 3128 3127 3127 3127 3126 3127 3129 3127 3122 3121 3120 3118 3118 3118 3118 3118 3118 3118 3119 3119 3119 3118 3117 3116 3116 3115 3115 3116 3115 3115 3116 3117 3117 3117 3118 3120 3121 3123 3125 3125 3126 3127 3127 3128 3131
3121 3122 3124 3125 3125 3123 3123 3124 3123 3125 3122 3118 3117 3117 3117 3116 3115 3115 3115 3115 3115 3115 3115 3115 3114 3113 3113 3112 3111 3110 3110 3110 3110 3109 3109 3109 3107 3111 3112 3114 3114 3116 3117 3118 3118 3120 3121 3122 3125
3117 3119 3120 3121 3120 3120 3119 3120 3120 3119 3117 3116 3115 3115 3115 3115 3114 3113 3112 3111 3111 3110 3110 3109 3109 3108 3108 3106 3105 3104 3104 3103 3104 3103 3102 3102 3102 3101 3099 3103 3106 3106 3108 3107 3108 3110 3114 3115 3118
3114 3115 3116 3118 3118 3118 3119 3119 3117 3114 3114 3113 3113 3112 3112 3111 3111 3110 3109 3108 3107 3106 3105 3103 3102 3101 3100 3100 3099 3098 3097 3096 3096 3095 3095 3094 3093 3093 3093 3093 3093 3088 3091 3093 3094 3096 3101 3109 3111
3109 3110 3111 3114 3113 3114 3115 3114 3113 3112 3111 3111 3110 3110 3110 3109 3108 3106 3105 3103 3101 3099 3098 3097 3096 3095 3093 3091 3091 3090 3089 3089 3088 3087 3086 3086 3084 3084 3084 3083 3082 3084 3075 3059 3062 3087 3089 3098 3103
3107 3106 3107 3110 3112 3109 3109 3109 3108 3108 3107 3106 3106 3106 3105 3104 3102 3101 3099 3097 3095 3093 3090 3089 3088 3087 3085 3084 3082 3080 3079 3079 3078 3078 3077 3075 3075 3074 3074 3074 3072 3071 3073 3071 3068 3069 3080 3084 3093
3104 3103 3103 3106 3109 3104 3106 3104 3102 3102 3101 3101 3101 3100 3099 3098 3096 3094 3092 3090 3088 3085 3083 3081 3079 3077 3075 3073 3073 3071 3069 3068 3067 3067 3066 3066 3064 3063 3063 3064 3065 3063 3062 3063 3062 3064 3074 3077 3082
3102 3100 3100 3101 3104 3102 3101 3099 3097 3096 3096 3096 3095 3095 3093 3091 3089 3087 3084 3081 3079 3076 3073 3071 3069 3067 3064 3062 3060 3058 3056 3056 3055 3054 3053 3053 3052 3050 3050 3051 3053 3053 3052 3054 3056 3057 3059 3064 3068
3098 3098 3099 3099 3098 3099 3096 3090 3091 3091 3090 3090 3090 3089 3087 3084 3082 3079 3077 3074 3071 3069 3066 3063 3060 3057 3055 3052 3048 3047 3044 3042 3040 3040 3039 3038 3037 3037 3036 3036 3038 3043 3042 3043 3048 3048 3050 3053 3058
3096 3098 3097 3096 3095 3095 3095 3087 3084 3085 3085 3086 3084 3083 3082 3080 3076 3074 3071 3067 3064 3061 3057 3054 3051 3047 3044 3041 3037 3033 3029 3027 3025 3023 3023 3024 3021 3021 3020 3020 3020 3025 3029 3032 3035 3038 3040 3042 3045
3095 3096 3096 3094 3093 3091 3091 3092 3074 3079 3080 3080 3080 3079 3077 3075 3072 3069 3066 3062 3058 3054 3049 3045 3040 3036 3031 3026 3022 3017 3013 3009 3006 3005 3004 3004 3005 3002 3003 3003 3003 3005 3011 3015 3019 3023 3026 3030 3035
3093 3094 3094 3093 3092 3087 3085 3088 3071 3074 3076 3076 3076 3074 3072 3070 3067 3063 3061 3057 3052 3048 3041 3036 3030 3024 3019 3013 3007 3001 2995 2990 2987 2984 2982 2983 2985 2984 2984 2985 2985 2986 2991 2996 3002 3006 3010 3016 3020
3088 3090 3091 3091 3089 3084 3081 3081 3073 3072 3071 3073 3071 3070 3067 3064 3062 3059 3055 3052 3047 3041 3035 3030 3022 3016 3008 3000 2994 2987 2981 2975 2971 2967 2965 2964 2965 2966 2966 2967 2967 2969 2973 2980 2985 2989 2995 3002 3008
3082 3084 3086 3085 3085 3080 3079 3071 3067 3068 3067 3066 3065 3063 3062 3061 3058 3054 3049 3046 3041 3035 3029 3022 3015 3007 2999 2990 2984 2976 2969 2962 2957 2952 2949 2949 2949 2949 2951 2951 2952 2955 2959 2965 2970 2974 2980 2987 2994
3080 3080 3081 3080 3078 3077 3070 3067 3064 3064 3062 3061 3060 3058 3057 3056 3053 3049 3045 3040 3035 3028 3021 3014 3007 2999 2992 2983 2974 2966 2958 2950 2944 2941 2938 2937 2937 2937 2937 2938 2940 2943 2947 2953 2957 2964 2968 2974 2982
3076 3076 3077 3078 3078 3074 3064 3062 3057 3058 3058 3058 3057 3055 3053 3051 3047 3044 3039 3035 3028 3023 3016 3009 3002 2996 2988 2977 2965 2955 2948 2943 2938 2935 2933 2932 2931 2930 2929 2929 2930 2934 2938 2944 2949 2955 2959 2964 2970
3072 3070 3071 3073 3072 3070 3065 3055 3054 3055 3054 3052 3051 3050 3047 3046 3042 3039 3035 3029 3025 3020 3015 3009 3003 2996 2987 2975 2962 2954 2947 2942 2938 2934 2933 2931 2930 2928 2926 2925 2926 2928 2932 2937 2944 2949 2953 2958 2963
3067 3066 3067 3067 3066 3063 3062 3049 3046 3048 3047 3047 3047 3044 3043 3041 3038 3034 3030 3025 3022 3018 3014 3009 3003 2997 2989 2976 2966 2957 2950 2946 2939 2936 2934 2934 2931 2928 2926 2925 2926 2927 2930 2933 2937 2943 2947 2950 2954